Location: Sternwarte auf dem Internationalen Platz Vogelsang IP
(50.5721°N, 6.4398°E)
Time: 19:03:43
(UTC+01:00)

A-11 Canister half - Pass Details

Date: 12 December 2025
Orbit: 1511 x 1688 km, 47.2° (Epoch: 19 January)

Event Time Altitude Azimuth Distance (km) Brightness Sun altitude
Rises 15:38:22 0° 218° (SW) 4,651 14.2 5.2°
Reaches altitude 10° 15:41:34 10° 211° (SSW) 3,684 13.1 4.9°
Maximum altitude 15:50:02 41° 145° (SE) 2,114 10.0 3.9°
Drops below altitude 10° 15:58:46 10° 80° (E) 3,806 10.6 2.9°
Sets 16:02:08 0° 73° (ENE) 4,820 11.0 2.5°
